Location: Rounton
(54.4000°N, 1.3500°W)
Time: 16:11:54
(UTC+01:00)

Vanguard 1 - Pass Details

Date: 22 February 2024
Orbit: 650 x 3821 km, 34.2° (Epoch: 23 April)

Event Time Altitude Azimuth Distance (km) Brightness Sun altitude
Rises 03:12:22 0° 276° (W) 7,818 - -34.3°
Reaches altitude 10° 03:19:59 10° 263° (W) 6,924 - -33.4°
Maximum altitude 03:33:30 20° 227° (SW) 5,893 - -31.7°
Exits shadow 03:43:54 12° 194° (SSW) 5,943 13.7 -30.4°
Drops below altitude 10° 03:45:32 10° 189° (S) 6,033 13.7 -30.1°
Sets 03:51:34 0° 174° (S) 6,548 14.1 -29.4°
